Location: Arbon
(43.0005°N, 0.7472°E)
Time: 02:31:20
(UTC+00:00)

Cosmos 2237 Rocket - Pass Details

Date: 07 August 2020
Orbit: 836 x 849 km, 71.0° (Epoch: 19 September)

Event Time Altitude Azimuth Distance (km) Brightness Sun altitude
Rises 02:34:27 0° 324° (NW) 3,406 5.5 -21.2°
Reaches altitude 10° 02:37:14 10° 313° (NW) 2,464 4.6 -20.9°
Enters shadow 02:41:08 26° 270° (W) 1,611 3.3 -20.5°
